Cody, WY

10:06 AM MDT on July 23, 2016 (GMT -0600)
Yellowstone Regional

Weather History for KCOD - December, 2014

Change the Weather History Date:

Tuesday, December 30, 2014

  Actual Average Record
Temperature  
Mean Temperature -6 °F -  
Max Temperature 0 °F 32 °F 65 °F (1937)
Min Temperature -13 °F 8 °F -29 °F (1990)
Degree Days  
Heating Degree Days 72    
Moisture  
Dew Point -12 °F    
Average Humidity 80    
Maximum Humidity 100    
Minimum Humidity 46    
Precipitation  
Precipitation 0.00 in - - ()
Sea Level Pressure  
Sea Level Pressure 30.46 in    
Wind  
Wind Speed 6 mph (SE)    
Max Wind Speed 12 mph    
Max Gust Speed -    
Visibility 10 miles    
Events      
Averages and records for this station are not official NWS values.
T = Trace of Precipitation, MM = Missing Value Source: NWS Daily Summary

Daily Weather History Graph

Daily Weather History Graph

Search for Another Location

Airport or City:

Trip Planner

Search our weather history database for the weather conditions in past years. The results will help you decide how hot, cold, wet, or windy it might be!

Date:

Astronomy

Dec. 30, 2014 Rise Set
Actual Time 7:52 AM MST 4:45 PM MST
Civil Twilight 7:19 AM MST 5:18 PM MST
Nautical Twilight 6:42 AM MST 5:55 PM MST
Astronomical Twilight 6:06 AM MST 6:30 PM MST
Moon 1:07 PM MST (12/30) 2:09 AM MST (12/30)
Length of Visible Light 9h 59m
Length of Day
8h 52m
Waxing Gibbous, 72% of the Moon is Illuminated
Dec 30
Waxing Gibbous
Jan 4
Full
Jan 13
Last Quarter
Jan 20
New
Jan 26
First Quarter

Hourly Weather History & Observations

Time (MST) Temp. Windchill Dew Point Humidity Pressure Visibility Wind Dir Wind Speed Gust Speed Precip Events Conditions
12:15 AM -2.2 °F -18.9 °F -5.8 °F 85% 30.52 in 9.0 mi North 10.4 mph - N/A   Overcast
12:35 AM -2.2 °F -15.6 °F -7.6 °F 78% 30.52 in 10.0 mi NNW 6.9 mph - N/A   Overcast
12:55 AM -2.2 °F -18.0 °F -7.6 °F 78% 30.52 in 10.0 mi North 9.2 mph - N/A   Overcast
1:15 AM -2.2 °F -15.6 °F -7.6 °F 78% 30.52 in 10.0 mi North 6.9 mph - N/A   Overcast
1:35 AM -4.0 °F -12.4 °F -9.4 °F 78% 30.53 in 10.0 mi WNW 3.5 mph - N/A   Overcast
1:55 AM -2.2 °F -14.2 °F -7.6 °F 78% 30.53 in 10.0 mi WNW 5.8 mph - N/A   Overcast
2:15 AM -2.2 °F - -7.6 °F 78% 30.53 in 10.0 mi Calm Calm - N/A   Overcast
2:35 AM -2.2 °F -12.5 °F -9.4 °F 71% 30.54 in 7.0 mi NW 4.6 mph - N/A   Overcast
2:55 AM -4.0 °F -12.4 °F -9.4 °F 78% 30.55 in 9.0 mi NW 3.5 mph - N/A   Overcast
3:15 AM -4.0 °F -12.4 °F -9.4 °F 78% 30.54 in 10.0 mi NW 3.5 mph - N/A   Overcast
3:35 AM -5.8 °F -19.9 °F -7.6 °F 92% 30.54 in 10.0 mi NNE 6.9 mph - N/A   Scattered Clouds
3:55 AM -5.8 °F -14.5 °F -9.4 °F 84% 30.55 in 9.0 mi North 3.5 mph - N/A   Mostly Cloudy
4:15 AM -7.6 °F -16.5 °F -7.6 °F 100% 30.55 in 9.0 mi NE 3.5 mph - N/A   Mostly Cloudy
4:35 AM -7.6 °F - -9.4 °F 92% 30.54 in 10.0 mi Calm Calm - N/A   Partly Cloudy
4:55 AM -5.8 °F -19.9 °F -7.6 °F 92% 30.54 in 10.0 mi ENE 6.9 mph - N/A   Scattered Clouds
5:15 AM -7.6 °F -16.5 °F -9.4 °F 92% 30.54 in 10.0 mi NNE 3.5 mph - N/A   Partly Cloudy
5:35 AM -7.6 °F -18.8 °F -9.4 °F 92% 30.55 in 10.0 mi North 4.6 mph - N/A   Scattered Clouds
5:55 AM -7.6 °F -18.8 °F -7.6 °F 100% 30.55 in 10.0 mi North 4.6 mph - N/A   Partly Cloudy
6:15 AM -9.4 °F -24.3 °F -9.4 °F 100% 30.55 in 10.0 mi NE 6.9 mph - N/A   Scattered Clouds
6:35 AM -9.4 °F -22.7 °F -13.0 °F 84% 30.55 in 10.0 mi NNE 5.8 mph - N/A   Scattered Clouds
6:55 AM -9.4 °F -22.7 °F -9.4 °F 100% 30.56 in 10.0 mi NNE 5.8 mph - N/A   Clear
7:15 AM -9.4 °F - -9.4 °F 100% 30.56 in 10.0 mi Calm Calm - N/A   Clear
7:35 AM -9.4 °F -22.7 °F -9.4 °F 100% 30.55 in 10.0 mi NE 5.8 mph - N/A   Clear
7:55 AM -9.4 °F - -9.4 °F 100% 30.55 in 10.0 mi Calm Calm - N/A   Clear
8:15 AM -9.4 °F - -13.0 °F 84% 30.55 in 10.0 mi Calm Calm - N/A   Clear
8:35 AM -9.4 °F - -14.8 °F 77% 30.55 in 10.0 mi Calm Calm - N/A   Clear
8:55 AM -11.2 °F -24.8 °F -18.4 °F 70% 30.56 in 10.0 mi South 5.8 mph - N/A   Clear
9:15 AM -11.2 °F -23.0 °F -20.2 °F 64% 30.56 in 10.0 mi South 4.6 mph - N/A   Clear
9:35 AM -9.4 °F -22.7 °F -14.8 °F 77% 30.56 in 10.0 mi South 5.8 mph - N/A   Clear
9:55 AM -9.4 °F -24.3 °F -14.8 °F 77% 30.55 in 10.0 mi South 6.9 mph - N/A   Clear
10:15 AM -7.6 °F -24.6 °F -16.6 °F 65% 30.55 in 10.0 mi South 9.2 mph - N/A   Clear
10:35 AM -7.6 °F -22.1 °F -14.8 °F 71% 30.54 in 10.0 mi South 6.9 mph - N/A   Clear
10:55 AM -7.6 °F -18.8 °F -7.6 °F 100% 30.53 in 10.0 mi SSE 4.6 mph - N/A   Clear
11:15 AM -5.8 °F -19.9 °F -16.6 °F 60% 30.52 in 10.0 mi SE 6.9 mph - N/A   Clear
11:35 AM -4.0 °F -17.8 °F -11.2 °F 71% 30.51 in 10.0 mi SE 6.9 mph - N/A   Clear
11:55 AM -2.2 °F -16.8 °F - N/A% 30.49 in 10.0 mi SE 8.1 mph - N/A   Clear
12:15 PM -2.2 °F -18.0 °F -18.4 °F 46% 30.49 in 10.0 mi SE 9.2 mph - N/A   Clear
12:35 PM -2.2 °F -18.0 °F -18.4 °F 46% 30.49 in 10.0 mi SE 9.2 mph - N/A   Clear
12:55 PM -2.2 °F -18.0 °F -2.2 °F 100% 30.48 in 10.0 mi SSE 9.2 mph - N/A   Clear
1:15 PM -2.2 °F -16.8 °F -11.2 °F 66% 30.46 in 10.0 mi SE 8.1 mph - N/A   Clear
1:35 PM -2.2 °F -16.8 °F -7.6 °F 78% 30.47 in 10.0 mi SSE 8.1 mph - N/A   Clear
1:55 PM -2.2 °F -15.6 °F -5.8 °F 85% 30.46 in 10.0 mi SSE 6.9 mph - N/A   Clear
2:15 PM -0.4 °F -13.4 °F -7.6 °F 72% 30.46 in 10.0 mi SSE 6.9 mph - N/A   Clear
2:35 PM -0.4 °F -15.7 °F -7.6 °F 72% 30.45 in 10.0 mi SE 9.2 mph - N/A   Clear
2:55 PM -2.2 °F -18.0 °F -5.8 °F 85% 30.43 in 10.0 mi SSE 9.2 mph - N/A   Clear
3:15 PM -2.2 °F -19.9 °F -7.6 °F 78% 30.42 in 10.0 mi SE 11.5 mph - N/A   Clear
3:35 PM -2.2 °F -16.8 °F -7.6 °F 78% 30.42 in 10.0 mi SE 8.1 mph - N/A   Clear
3:55 PM -2.2 °F -18.0 °F -7.6 °F 78% 30.42 in 10.0 mi SSE 9.2 mph - N/A   Clear
4:15 PM -2.2 °F -18.0 °F -9.4 °F 71% 30.41 in 10.0 mi SE 9.2 mph - N/A   Clear
4:35 PM -4.0 °F -20.2 °F -9.4 °F 78% 30.40 in 10.0 mi SSE 9.2 mph - N/A   Clear
4:55 PM -5.8 °F -21.2 °F -9.4 °F 84% 30.40 in 10.0 mi SSE 8.1 mph - N/A   Clear
5:15 PM -5.8 °F -18.4 °F -11.2 °F 77% 30.39 in 10.0 mi South 5.8 mph - N/A   Clear
5:35 PM -7.6 °F - -9.4 °F 92% 30.39 in 10.0 mi Calm Calm - N/A   Clear
5:55 PM -7.6 °F - -11.2 °F 84% 30.40 in 10.0 mi Calm Calm - N/A   Clear
6:15 PM -7.6 °F - -11.2 °F 84% 30.39 in 6.0 mi Calm Calm - N/A   Clear
6:35 PM -7.6 °F - -9.4 °F 92% 30.39 in 10.0 mi Calm Calm - N/A   Clear
6:55 PM -7.6 °F - -14.8 °F 71% 30.38 in 10.0 mi Calm Calm - N/A   Clear
7:15 PM -9.4 °F - - N/A% 30.38 in 10.0 mi Calm Calm - N/A   Clear
7:35 PM -11.2 °F -24.8 °F -11.2 °F 100% 30.37 in 10.0 mi South 5.8 mph - N/A   Clear
7:55 PM -11.2 °F - -14.8 °F 84% 30.36 in 10.0 mi Calm Calm - N/A   Clear
8:15 PM -9.4 °F -18.6 °F -9.4 °F 100% 30.36 in 10.0 mi South 3.5 mph - N/A   Clear
8:35 PM -11.2 °F - -20.2 °F 64% 30.35 in 10.0 mi Calm Calm - N/A   Clear
8:55 PM -11.2 °F -20.6 °F -20.2 °F 64% 30.33 in 10.0 mi South 3.5 mph - N/A   Clear
9:15 PM -11.2 °F - -11.2 °F 100% 30.33 in 10.0 mi Calm Calm - N/A   Clear
9:35 PM -11.2 °F - -14.8 °F 84% 30.32 in 10.0 mi Calm Calm - N/A   Clear
9:55 PM -11.2 °F - -23.8 °F 54% 30.32 in 8.0 mi Calm Calm - N/A   Clear
10:15 PM -13.0 °F - -20.2 °F 70% 30.32 in 10.0 mi Calm Calm - N/A   Clear
10:35 PM -11.2 °F - -11.2 °F 100% 30.33 in 10.0 mi Calm Calm - N/A   Clear
10:55 PM -11.2 °F - -20.2 °F 64% 30.32 in 10.0 mi Calm Calm - N/A   Clear
11:15 PM -9.4 °F -18.6 °F -23.8 °F 49% 30.32 in 10.0 mi SSW 3.5 mph - N/A   Clear
11:35 PM -11.2 °F -23.0 °F -20.2 °F 64% 30.31 in 10.0 mi South 4.6 mph - N/A   Clear
11:55 PM -11.2 °F -23.0 °F -20.2 °F 64% 30.30 in 10.0 mi SSE 4.6 mph - N/A   Clear